Wind_Speed
32 31 31 31 31 31 31 31 32 30 29 28 29 29 29 30 30 30 30 30 30 31 31 31 31 31 31 32 32 33 33 34 34 34 34 34 34 35 35 35 36 36 36 37
33 33 33 33 33 33 32 31 32 31 29 29 31 31 29 30 30 30 31 31 31 31 31 31 31 32 32 32 33 33 34 34 34 34 34 34 34 34 35 35 35 36 36 37
31 31 33 34 31 32 32 31 32 32 30 30 31 31 31 30 31 31 30 31 31 31 30 31 31 31 32 32 32 32 33 33 33 33 33 33 33 33 34 35 35 35 35 36
30 30 31 30 30 30 30 30 31 32 31 31 32 32 32 31 31 31 31 31 31 31 31 31 31 31 31 31 31 32 32 32 31 32 32 32 32 32 33 34 34 34 35 35
29 30 29 27 27 28 28 28 29 30 30 31 32 32 32 32 31 31 32 32 32 31 31 30 30 30 31 31 31 31 32 32 31 32 32 32 32 33 33 33 34 34 34 35
28 29 28 26 27 27 28 28 28 29 30 30 30 31 31 31 31 31 32 31 31 31 31 31 31 31 31 31 31 32 32 32 32 32 32 32 32 33 33 34 35 34 34 34
28 28 28 26 26 27 29 28 27 28 29 29 30 30 29 29 30 31 31 31 31 32 31 31 31 31 31 31 31 31 31 31 31 32 32 32 32 33 34 35 35 34 33 33
27 28 27 26 27 28 28 28 28 28 28 29 29 29 29 29 30 30 30 31 31 31 31 31 31 31 30 30 30 30 31 31 31 31 31 31 32 33 33 34 34 33 32 32
25 25 25 26 27 28 28 28 28 29 28 28 28 29 29 29 29 30 30 30 30 30 31 31 31 31 30 30 30 30 31 30 31 31 31 31 32 32 32 32 32 32 32 32
24 23 25 26 27 26 27 28 27 28 28 28 28 28 29 29 29 29 29 29 29 30 30 30 31 31 31 30 31 31 31 31 31 31 31 31 31 31 31 32 32 32 31 31
24 23 24 24 26 26 27 27 27 27 27 27 27 27 27 27 28 28 29 29 29 29 29 29 30 30 30 31 31 31 30 30 30 30 30 30 31 31 31 31 31 31 31 30
25 24 25 24 24 25 26 27 27 27 27 27 27 26 26 25 26 27 28 28 28 28 27 27 28 28 29 30 30 30 30 29 30 30 30 29 29 28 28 29 29 29 28 28
24 25 26 25 25 26 27 27 27 27 26 25 25 25 25 24 25 25 26 26 27 26 27 27 27 28 29 29 29 29 29 29 29 29 29 28 28 28 27 27 27 27 26 25
24 25 25 25 26 26 26 26 26 25 25 25 25 25 24 24 24 25 25 26 26 27 27 27 28 28 28 28 28 28 28 28 29 28 27 27 27 26 26 26 26 25 25 24
25 25 25 25 26 26 26 25 24 24 24 25 25 25 24 24 25 25 25 26 26 26 27 27 27 26 26 26 26 26 27 27 27 26 26 26 26 26 25 25 25 25 24 24
24 25 25 26 26 25 25 24 23 23 23 24 24 24 24 24 25 25 25 25 25 25 25 25 25 25 25 25 25 25 26 25 25 25 25 25 25 25 24 24 24 24 23 23
24 24 25 25 25 25 23 22 22 22 22 23 23 23 24 24 24 23 23 23 24 23 23 23 24 24 24 24 24 24 24 24 24 24 24 24 24 24 24 24 23 23 22 22
23 23 23 24 24 23 22 21 21 21 22 22 22 22 22 22 22 22 22 22 22 22 22 22 23 23 23 23 23 23 23 23 23 23 23 23 23 24 23 23 22 21 21 21
22 22 22 22 22 22 22 21 21 21 21 21 21 21 21 21 21 21 21 21 21 21 21 21 21 22 22 22 22 23 23 23 22 23 23 23 23 23 23 22 22 21 20 20
21 21 20 21 21 21 22 22 22 21 21 21 20 20 20 19 20 20 20 20 20 21 21 21 21 21 22 22 23 23 23 23 23 23 23 22 22 22 22 21 20 20 19 18
20 20 20 20 20 20 21 21 21 21 21 20 19 19 19 19 19 19 20 20 20 20 20 20 21 22 22 22 22 22 22 22 22 22 22 22 21 21 20 20 20 19 18 18
20 20 19 19 19 20 20 20 19 19 19 18 18 18 19 19 19 19 19 19 19 19 20 20 21 21 21 21 21 21 21 21 21 21 20 20 20 19 19 19 19 19 18 18
19 19 19 19 19 19 18 18 18 18 17 17 17 18 18 18 18 18 18 18 18 19 20 20 20 20 20 20 20 20 20 20 20 20 19 19 19 19 19 18 18 18 18 18
18 19 19 19 18 18 17 17 17 16 16 16 16 16 16 17 17 17 17 17 18 18 19 19 19 19 19 19 19 19 19 19 18 19 19 19 19 18 18 18 18 18 18 18
18 18 18 18 18 18 17 17 16 16 16 16 16 16 16 16 17 17 17 17 18 18 18 18 18 18 18 18 18 18 18 18 18 18 19 19 18 18 17 18 18 18 18 18
17 16 17 17 17 17 16 16 16 16 16 16 15 16 16 16 16 16 16 17 17 17 18 18 18 18 18 18 18 18 18 18 18 18 18 18 17 17 17 16 17 17 17 17
16 16 16 16 16 16 16 16 16 16 16 16 16 16 16 16 16 16 17 17 17 18 18 18 18 18 18 18 18 18 18 18 18 18 18 17 17 17 16 16 16 16 16 16
Wind_Direction
256 256 255 254 254 255 257 261 264 266 268 270 269 269 269 269 269 269 268 268 268 267 268 269 269 270 271 271 272 272 271 272 272 272 272 273 273 273 273 275 276 277 278 278
255 255 256 255 255 256 258 260 263 265 268 270 271 271 270 270 269 268 267 267 267 267 268 269 269 271 271 271 271 272 271 272 272 272 272 274 274 275 275 276 277 278 279 279
257 256 257 256 256 258 259 261 263 265 268 269 271 272 271 270 269 269 268 267 266 267 268 268 269 270 271 272 273 273 273 273 272 272 272 274 275 275 275 277 278 279 280 280
261 260 261 259 258 260 262 263 266 268 270 270 271 271 271 270 270 268 268 267 266 267 268 268 269 270 271 272 273 273 273 273 273 272 273 274 275 276 277 278 280 281 282 281
262 262 262 261 260 262 264 265 267 270 272 272 272 271 269 269 270 270 269 267 266 266 268 268 269 269 270 271 272 272 273 273 273 273 274 275 275 275 277 279 281 282 283 283
262 264 265 265 263 264 267 268 270 271 271 272 272 271 269 270 270 270 268 268 266 265 266 267 269 270 271 271 271 272 273 273 273 274 274 275 276 276 277 279 281 282 283 283
262 266 268 268 268 269 270 272 272 272 272 273 273 274 272 271 272 272 270 269 267 265 266 268 269 270 272 272 271 272 272 273 274 274 275 276 277 277 278 280 282 283 284 284
263 266 270 271 270 270 272 272 271 271 271 272 274 273 272 273 273 273 271 270 269 267 267 269 270 271 271 271 271 272 273 273 274 276 276 276 278 279 280 281 282 282 283 283
263 267 268 270 272 273 273 274 273 271 271 273 274 273 273 272 272 272 271 271 270 269 268 269 270 271 271 271 272 272 272 274 275 276 278 278 279 280 280 280 280 281 283 283
262 265 265 268 270 272 272 273 273 273 273 274 273 272 272 272 272 271 270 269 270 270 270 270 271 271 271 272 272 273 273 275 277 278 278 279 280 281 279 279 280 281 282 283
262 264 266 268 269 270 271 273 274 275 274 274 274 273 273 273 273 271 270 269 271 271 270 270 271 271 271 272 273 273 275 277 278 279 279 280 280 280 280 279 281 281 282 283
265 267 268 269 270 271 272 274 275 276 276 276 275 274 274 273 273 273 272 271 271 271 270 270 271 271 272 272 273 274 276 278 279 280 280 280 279 279 279 280 281 281 283 283
267 268 269 271 272 274 274 275 276 276 277 276 274 274 274 274 275 275 273 272 271 271 271 272 273 273 273 273 273 275 276 278 280 280 279 279 279 278 278 280 282 283 284 284
267 268 270 271 273 273 274 275 275 275 274 274 273 273 274 274 275 275 274 274 273 273 274 274 274 274 274 273 274 275 276 279 280 278 277 279 279 279 279 280 282 284 284 284
267 268 270 271 272 272 273 275 275 274 274 273 274 274 274 274 275 275 275 275 275 275 275 276 275 275 274 275 275 276 278 280 278 277 277 278 278 279 280 281 283 284 283 283
267 270 272 273 274 273 274 274 274 274 274 274 274 275 276 277 277 276 276 275 275 275 276 276 276 275 276 276 276 278 279 278 278 277 277 278 279 280 282 283 284 285 284 283
270 272 273 273 273 273 273 272 272 271 273 274 275 276 278 279 278 278 278 276 275 275 275 276 276 275 276 276 277 278 278 278 277 277 278 281 282 282 283 284 285 285 284 282
273 274 274 272 271 270 270 270 271 273 275 276 277 278 280 280 278 277 277 276 274 274 275 276 275 274 276 278 278 278 278 278 278 279 280 282 284 284 284 284 283 283 282 280
276 275 273 271 270 269 268 268 271 274 276 276 277 279 280 280 277 276 275 274 274 274 275 276 277 276 277 278 278 279 279 278 279 281 281 282 284 283 282 281 280 279 278 277
275 274 273 272 271 270 269 270 272 274 276 276 276 278 278 279 277 275 275 275 277 277 276 277 278 278 278 280 280 281 280 278 278 279 280 282 282 282 280 278 277 276 275 273
274 274 274 274 273 273 273 272 272 273 275 275 276 277 277 278 278 277 277 278 279 279 278 279 281 281 281 281 281 281 280 277 277 278 279 280 281 280 278 276 276 274 271 270
273 271 272 273 274 274 274 272 271 272 273 275 277 278 278 279 279 279 280 280 280 279 281 282 284 283 282 282 282 282 281 279 276 276 277 279 280 279 277 276 275 272 270 269
271 270 272 273 273 273 274 273 272 273 275 276 278 278 279 280 280 280 280 280 281 282 283 285 285 284 284 283 282 283 282 280 277 275 276 278 278 277 276 275 273 271 270 270
269 270 271 272 272 272 272 272 274 276 276 276 278 278 280 282 282 280 280 280 282 284 285 285 285 286 286 285 283 283 282 280 278 275 276 277 277 276 275 274 272 271 270 270
270 271 272 272 272 272 273 272 274 277 277 277 278 278 281 283 282 281 280 281 284 287 287 287 286 286 286 285 283 282 281 280 278 277 277 276 275 275 276 275 273 272 270 269
271 270 270 271 272 271 271 271 274 276 276 275 275 277 279 280 280 280 280 282 284 286 287 288 287 286 285 284 283 282 281 279 279 279 278 276 276 276 275 273 271 271 271 270
269 270 271 271 271 270 269 271 273 274 274 274 275 277 278 280 282 282 282 283 283 284 287 288 287 284 283 284 284 283 281 280 278 278 276 274 273 273 273 273 273 272 271 270
Height
5569 5571 5572 5573 5576 5577 5578 5580 5581 5583 5584 5586 5585 5585 5586 5585 5585 5585 5586 5586 5587 5587 5587 5587 5587 5587 5587 5587 5586 5586 5586 5586 5586 5586 5585 5585 5584 5584 5583 5583 5582 5581 5581 5580
5561 5563 5563 5565 5568 5569 5570 5572 5573 5574 5576 5577 5576 5576 5577 5577 5576 5576 5577 5577 5578 5578 5578 5578 5578 5578 5577 5577 5577 5577 5576 5576 5576 5576 5576 5575 5575 5574 5573 5573 5572 5571 5570 5569
5553 5555 5554 5556 5561 5562 5563 5564 5565 5565 5568 5568 5568 5567 5568 5568 5567 5568 5568 5568 5569 5569 5569 5569 5569 5568 5568 5568 5567 5567 5567 5567 5566 5566 5566 5565 5565 5564 5564 5563 5562 5561 5560 5559
5544 5546 5546 5553 5553 5554 5554 5556 5556 5557 5558 5559 5559 5558 5558 5558 5558 5558 5559 5559 5559 5560 5560 5560 5560 5560 5559 5559 5559 5558 5558 5558 5557 5557 5557 5556 5555 5555 5554 5553 5552 5551 5550 5548
5537 5537 5539 5543 5545 5545 5546 5547 5548 5549 5549 5549 5549 5549 5549 5549 5549 5549 5549 5549 5550 5550 5551 5551 5550 5550 5550 5550 5550 5549 5549 5548 5548 5547 5547 5546 5546 5545 5544 5543 5542 5541 5539 5538
5530 5530 5531 5537 5538 5537 5538 5539 5540 5540 5540 5540 5540 5540 5541 5540 5540 5540 5539 5540 5540 5541 5541 5541 5541 5541 5541 5541 5540 5540 5539 5539 5538 5538 5538 5537 5536 5536 5534 5533 5532 5531 5529 5527
5523 5522 5524 5529 5530 5530 5531 5532 5532 5531 5531 5531 5530 5531 5531 5530 5530 5530 5530 5530 5530 5531 5532 5532 5532 5532 5532 5532 5531 5531 5530 5530 5529 5528 5528 5527 5527 5526 5525 5524 5522 5521 5519 5518
5516 5516 5520 5521 5521 5522 5522 5522 5522 5522 5522 5521 5521 5521 5521 5521 5521 5521 5521 5521 5521 5521 5522 5522 5522 5523 5523 5523 5522 5521 5521 5521 5520 5519 5519 5518 5517 5516 5515 5513 5512 5511 5509 5508
5510 5512 5512 5512 5513 5513 5513 5513 5512 5513 5513 5512 5512 5512 5512 5512 5512 5512 5512 5512 5512 5512 5513 5513 5513 5513 5514 5514 5513 5513 5512 5512 5511 5510 5510 5509 5508 5506 5505 5503 5502 5501 5500 5498
5502 5504 5505 5504 5504 5504 5504 5504 5504 5504 5504 5504 5503 5504 5504 5504 5504 5503 5503 5503 5503 5503 5504 5504 5504 5504 5504 5504 5504 5503 5503 5503 5502 5501 5501 5499 5498 5497 5495 5494 5493 5492 5490 5489
5495 5497 5497 5497 5497 5497 5496 5496 5496 5496 5495 5495 5495 5495 5495 5495 5495 5495 5495 5495 5495 5495 5495 5495 5495 5495 5495 5495 5495 5495 5494 5494 5493 5492 5491 5490 5489 5488 5486 5485 5483 5482 5481 5479
5488 5489 5489 5490 5489 5489 5489 5488 5488 5488 5488 5488 5487 5487 5487 5487 5486 5486 5486 5486 5486 5486 5487 5487 5487 5487 5486 5486 5486 5486 5486 5485 5484 5483 5482 5481 5480 5479 5477 5476 5475 5473 5471 5470
5480 5481 5481 5482 5482 5481 5481 5481 5481 5480 5480 5480 5480 5479 5479 5479 5479 5478 5478 5478 5478 5478 5479 5479 5478 5478 5478 5478 5478 5477 5477 5476 5475 5474 5473 5472 5471 5470 5469 5468 5466 5465 5463 5462
5473 5473 5474 5474 5474 5474 5473 5473 5473 5472 5472 5472 5472 5471 5471 5471 5471 5471 5471 5471 5471 5471 5470 5470 5470 5470 5469 5469 5469 5468 5468 5467 5466 5465 5464 5464 5463 5462 5461 5460 5459 5457 5456 5454
5466 5466 5466 5466 5466 5466 5466 5465 5465 5465 5464 5464 5464 5463 5463 5463 5463 5463 5463 5463 5462 5462 5462 5462 5462 5461 5461 5460 5460 5460 5459 5459 5458 5457 5456 5456 5455 5454 5453 5452 5451 5449 5448 5447
5459 5458 5458 5459 5459 5458 5458 5458 5458 5457 5457 5456 5456 5456 5455 5456 5455 5455 5455 5455 5455 5455 5454 5454 5454 5454 5453 5453 5452 5452 5451 5451 5450 5449 5449 5448 5447 5446 5445 5444 5443 5442 5441 5440
5451 5452 5451 5451 5451 5451 5450 5450 5450 5450 5449 5449 5449 5448 5448 5448 5448 5447 5447 5447 5447 5447 5447 5447 5447 5446 5446 5445 5445 5444 5444 5443 5442 5442 5441 5440 5439 5438 5437 5436 5435 5434 5433 5432
5444 5444 5444 5444 5444 5444 5444 5443 5443 5443 5443 5442 5442 5442 5441 5441 5440 5440 5440 5440 5440 5440 5440 5440 5439 5439 5439 5438 5437 5437 5436 5436 5435 5434 5433 5432 5431 5430 5429 5428 5427 5427 5426 5425
5437 5437 5437 5437 5437 5437 5437 5437 5437 5437 5436 5436 5435 5435 5435 5434 5433 5433 5433 5433 5433 5433 5433 5433 5432 5432 5431 5431 5430 5429 5429 5428 5427 5427 5426 5425 5424 5423 5422 5421 5420 5420 5419 5418
5431 5431 5430 5430 5430 5430 5430 5430 5430 5430 5430 5429 5429 5428 5428 5427 5427 5427 5427 5427 5427 5426 5426 5426 5425 5425 5424 5423 5423 5422 5421 5421 5420 5419 5419 5418 5417 5416 5414 5414 5413 5413 5412 5412
5425 5424 5424 5424 5424 5424 5424 5424 5424 5424 5423 5423 5422 5422 5422 5421 5421 5421 5420 5420 5420 5420 5419 5419 5418 5418 5417 5416 5415 5415 5414 5413 5413 5412 5411 5410 5410 5409 5408 5407 5407 5406 5406 5406
5418 5418 5418 5418 5418 5418 5418 5418 5417 5417 5417 5416 5416 5416 5416 5415 5415 5414 5414 5414 5413 5413 5413 5412 5412 5411 5410 5409 5408 5408 5407 5406 5406 5405 5404 5404 5403 5402 5401 5401 5400 5400 5400 5400
5412 5412 5412 5412 5412 5412 5412 5412 5412 5411 5411 5411 5410 5410 5410 5409 5409 5409 5409 5408 5408 5407 5407 5406 5405 5404 5403 5402 5402 5401 5400 5399 5399 5398 5398 5397 5397 5396 5395 5395 5395 5395 5395 5395
5406 5406 5406 5406 5406 5406 5406 5406 5406 5406 5405 5405 5405 5405 5405 5404 5404 5403 5403 5402 5402 5401 5401 5400 5399 5398 5397 5396 5395 5394 5394 5393 5392 5392 5392 5391 5391 5390 5389 5389 5389 5389 5389 5390
5400 5401 5401 5401 5401 5401 5401 5401 5401 5401 5400 5400 5400 5400 5400 5399 5399 5398 5398 5397 5396 5396 5395 5394 5393 5392 5391 5390 5389 5388 5387 5387 5386 5386 5385 5385 5385 5384 5384 5384 5384 5384 5384 5385
5395 5395 5395 5395 5395 5395 5396 5396 5396 5396 5396 5395 5395 5395 5395 5394 5394 5393 5393 5392 5391 5390 5389 5388 5387 5386 5385 5384 5383 5382 5381 5381 5380 5380 5380 5379 5379 5379 5379 5379 5379 5379 5379 5379
5389 5390 5390 5390 5390 5390 5390 5391 5391 5391 5391 5391 5391 5390 5390 5390 5389 5388 5387 5386 5385 5384 5383 5382 5381 5380 5379 5378 5377 5376 5375 5375 5374 5374 5374 5373 5373 5373 5374 5374 5374 5374 5374 5374